Regional Weather Roundup
Issued by NWS

Home | Current Version | Previous Version | Text Only | Print | Product List | Glossary On
Versions: 1 2 3 4 5 6 7 8 9 10 11 12 13 14 15 16 17 18 19 20 21 22 23 24 25 26 27 28 29 30 31 32 33 34 35 36 37 38 39 40 41 42 43 44 45 46 47 48 49 50
000
ASUS43 KLSX 211159
RWRMO

WEATHER SUMMARY FOR MISSOURI
NATIONAL WEATHER SERVICE SPRINGFIELD MO
700 AM CDT MON APR 21 2014

NOTE: "FAIR" INDICATES FEW OR NO CLOUDS BELOW 12,000 FEET WITH NO
       SIGNIFICANT WEATHER AND/OR OBSTRUCTIONS TO VISIBILITY.
       CURRENT SKY AND/OR WEATHER CONDITIONS ARE NOT AVAILABLE FOR
       CHILLICOTHE AND FARMINGTON.

MOZ001>031-035>038-043-044-053-054-211300-
...NORTHERN AND WESTERN MISSOURI...

CITY           SKY/WX    TMP DP  RH WIND       PRES   REMARKS
KANSAS CTY INT LGT RAIN  62  56  80 SW9       29.99R
6HR MIN TEMP:  61; 6HR MAX TEMP:  65; 6HR PCP: TRACE;

KANSAS C DTWN  CLOUDY    64  56  75 SW7       29.98R
6HR MIN TEMP:  64; 6HR MAX TEMP:  68; 6HR PCP: TRACE;

LEE`S SUMMIT   CLOUDY    62  56  80 S8        30.00R
6HR MIN TEMP:  62; 6HR MAX TEMP:  67; 6HR PCP: TRACE;

ST JOSEPH      CLOUDY    60  57  89 CALM      29.97S
6HR MIN TEMP:  59; 6HR MAX TEMP:  64; 6HR PCP:  0.26;

CHILLICOTHE      N/A     61  58  90 SW3       30.00R
6HR MIN TEMP:  61; 6HR MAX TEMP:  68; 6HR PCP:  0.15;

KIRKSVILLE     CLOUDY    63  53  70 SW6       29.99R
6HR MIN TEMP:  61; 6HR MAX TEMP:  68;


$$
MOZ066>068-077>081-088>096-101>105-211300-
...SOUTHWEST MISSOURI...

CITY           SKY/WX    TMP DP  RH WIND       PRES   REMARKS
SPRINGFIELD    LGT RAIN  60  58  92 SE6       30.04S FOG
6HR MIN TEMP:  59; 6HR MAX TEMP:  64; 6HR PCP:  0.15;

JOPLIN         CLOUDY    60  59  96 CALM      30.03R FOG
6HR MIN TEMP:  59; 6HR MAX TEMP:  64; 6HR PCP:  0.09;


$$
MOZ032>034-039>042-045>050-055>058-069>072-211300-
...CENTRAL MISSOURI...

CITY           SKY/WX    TMP DP  RH WIND       PRES   REMARKS
COLUMBIA       CLOUDY    61  52  72 SW8       30.02R
6HR MIN TEMP:  59; 6HR MAX TEMP:  66;

JEFFERSON CITY CLOUDY    62  53  72 W7        30.02R
6HR MIN TEMP:  58; 6HR MAX TEMP:  64;

ROLLA          CLOUDY    58  52  80 SW10      30.03R
6HR MIN TEMP:  58; 6HR MAX TEMP:  65; 6HR PCP:  0.01;

SEDALIA        LGT RAIN  61  57  87 SW8       30.03R
6HR MIN TEMP:  60; 6HR MAX TEMP:  65; 6HR PCP:  0.01;

WHITEMAN AFB   LGT RAIN  59  54  82 SW7       30.02R
OSAGE BEACH    CLOUDY    59  55  88 SW3       30.05S

$$
MOZ051-052-059>065-211300-
...EAST CENTRAL MISSOURI...

CITY           SKY/WX    TMP DP  RH WIND       PRES   REMARKS
ST LOUIS INTL  CLOUDY    63  48  58 CALM      30.01S
6HR MIN TEMP:  61; 6HR MAX TEMP:  71;

SPIRIT OF STL  CLOUDY    57  49  74 CALM      29.99F
6HR MIN TEMP:  57; 6HR MAX TEMP:  69;

ST CHARLES     CLOUDY    58  52  80 CALM      29.99F
6HR MIN TEMP:  56; 6HR MAX TEMP:  65;


$$
MOZ072>076-082>087-097>100-106>115-211300-
...SOUTH CENTRAL AND SOUTHEAST MISSOURI...

CITY           SKY/WX    TMP DP  RH WIND       PRES   REMARKS
CAPE GIRARDEAU CLOUDY    58  52  80 SE3       30.05S
6HR MIN TEMP:  53; 6HR MAX TEMP:  59;

FARMINGTON     CLOUDY    61  54  77 NW7       30.05F
6HR MIN TEMP:  57; 6HR MAX TEMP:  63; 6HR PCP:  0.02;

POPLAR BLUFF   CLOUDY    60  52  74 CALM      30.06R
6HR MIN TEMP:  58; 6HR MAX TEMP:  60;

WEST PLAINS    CLOUDY    59  55  87 S5        30.07S
6HR MIN TEMP:  59; 6HR MAX TEMP:  66; 6HR PCP:  0.02;


$$



USA.gov is the U.S. government's official web portal to all federal, state and local government web resources and services.